S-NET C (43189 NORAD) Tracking and Keplerian Element Data

This shows tracking and keplerian element data for the satellite.

Feedback or suggestion? Click here.




ElementValue
Catalog43189
NameS-NET C
Epoch Orbit4594
Epoch Day349.22316644
Epoch Year2018
RAAN255.2555
Inclination97.7172
Eccentricity0.0009481
Argument of Perigee265.472
Mean Anonmoly94.5419
Mean Motion14.96549503
Decay Rate6.58E-06
L11 43189U 18014K 18349.22316644 .00000658 00000-0 62952-4 0 9999
L22 43189 97.7172 255.2555 0009481 265.4720 94.5419 14.96549503 45947

Live tracking and technical data element details for S-NET C (NORAD 43189). S-NET C can be tracked NOW for your location showing map with azimuth and elevation plus other details from your city location.

Track the satellite on the map from your city or location and see movement details for azimuth, elevation, latitude, longitude, range, height, and movement on the map or in text.







IsCatalogInMostPopularTable: catalog: 43189, numindb: 130
Update: records affected: 1



GetName: 43189 S-NET C

Hit Count: updated at: Sat, 15 Dec 2018 13:15:02 GMT